FW0824 Weather Reports


Display with metric or nautical units.
time (UTC)temp
F
wind
direction
speed
MPH
gust
MPH
rain 1hr
in
rain 24hr
in
rain mn
in
humidity
%
barometer
mb
20240529151202 63 66 2.0 5.0 0.00 0.09 0.00 62 1026.4
20240529150702 63 65 2.0 5.0 0.00 0.09 0.00 65 1026.5
20240529145701 63 81 1.0 3.0 0.00 0.09 0.00 68 1026.5
20240529145201 62 83 2.0 4.0 0.00 0.09 0.00 67 1026.5
20240529143202 62 71 2.0 5.0 0.00 0.09 0.00 68 1026.6
20240529141701 61 136 1.0 5.0 0.00 0.09 0.00 71 1026.6
20240529141203 61 113 1.0 4.0 0.00 0.09 0.00 71 1026.6
20240529140200 60 70 2.0 5.0 0.00 0.09 0.00 71 1026.4
20240529135654 60 128 1.0 3.0 0.00 0.09 0.00 72 1026.5
20240529135150 60 128 1.0 2.0 0.00 0.09 0.00 74 1026.5
20240529134649 60 128 1.0 4.0 0.00 0.09 0.00 74 1026.6
20240529134150 59 129 1.0 4.0 0.00 0.09 0.00 75 1026.5
20240529133650 59 82 1.0 2.0 0.00 0.09 0.00 79 1026.5
20240529133147 58 59 1.0 2.0 0.00 0.09 0.00 80 1026.4
20240529132649 58 59 0.0 2.0 0.00 0.09 0.00 81 1026.3
20240529132147 58 59 1.0 3.0 0.00 0.09 0.00 82 1026.1
20240529131646 57 59 1.0 4.0 0.00 0.09 0.00 83 1026.2
20240529131143 57 59 1.0 4.0 0.00 0.09 0.00 84 1026.3
20240529130644 56 45 1.0 3.0 0.00 0.09 0.00 86 1026.1
20240529130144 56 45 1.0 3.0 0.00 0.10 0.00 88 1026.2
20240529125146 55 17 0.0 1.0 0.00 0.12 0.00 90 1026.2
20240529124645 55 17 0.0 3.0 0.00 0.13 0.00 90 1026.0
20240529124144 54 17 1.0 3.0 0.00 0.13 0.00 91 1025.9
20240529123644 54 17 1.0 3.0 0.00 0.13 0.00 91 1025.7
20240529123144 53 17 1.0 3.0 0.00 0.13 0.00 92 1025.7
20240529122144 53 17 0.0 2.0 0.00 0.13 0.00 93 1025.7
20240529121644 52 17 0.0 1.0 0.00 0.14 0.00 93 1025.7
20240529121144 52 17 0.0 1.0 0.00 0.14 0.00 93 1025.6
20240529120645 51 17 0.0 0.0 0.00 0.14 0.00 93 1025.7
20240529115646 50 17 0.0 1.0 0.00 0.14 0.00 93 1025.4
20240529115145 50 17 0.0 1.0 0.00 0.14 0.00 92 1025.5
20240529114645 49 17 0.0 1.0 0.00 0.14 0.00 92 1025.3
20240529114143 49 17 0.0 1.0 0.00 0.14 0.00 92 1025.3
20240529113644 48 17 0.0 0.0 0.00 0.14 0.00 92 1025.1
20240529112643 48 17 0.0 0.0 0.00 0.14 0.00 92 1025.2
20240529112145 48 17 0.0 0.0 0.00 0.14 0.00 92 1025.0
20240529111640 47 17 0.0 0.0 0.00 0.14 0.00 91 1025.0
20240529111140 47 17 0.0 1.0 0.00 0.14 0.00 91 1024.9
20240529110640 47 17 0.0 1.0 0.00 0.14 0.00 91 1024.8
20240529110140 47 17 0.0 1.0 0.00 0.14 0.00 91 1024.7
20240529105640 47 17 0.0 2.0 0.00 0.14 0.00 91 1024.7
20240529104639 47 17 0.0 1.0 0.00 0.14 0.00 90 1024.4
20240529104140 48 17 0.0 0.0 0.00 0.14 0.00 91 1024.4
20240529103641 48 17 0.0 0.0 0.00 0.14 0.00 90 1024.3
20240529102636 48 17 0.0 0.0 0.00 0.14 0.00 90 1024.4
20240529102136 48 17 0.0 0.0 0.00 0.14 0.00 90 1024.4
20240529101635 48 17 0.0 1.0 0.00 0.14 0.00 90 1024.5
20240529101136 49 17 0.0 2.0 0.00 0.14 0.00 91 1024.5
20240529100637 49 17 0.0 2.0 0.00 0.14 0.00 90 1024.2
20240529100134 49 17 0.0 2.0 0.00 0.14 0.00 90 1024.2
20240529095632 49 17 0.0 2.0 0.00 0.14 0.00 90 1024.2
20240529095132 49 18 1.0 3.0 0.00 0.14 0.00 90 1024.1
20240529094631 49 18 1.0 4.0 0.00 0.14 0.00 90 1024.1
20240529093630 49 30 1.0 3.0 0.00 0.14 0.00 90 1024.0
20240529093130 49 15 0.0 2.0 0.00 0.14 0.00 90 1023.8
20240529092631 49 15 1.0 2.0 0.00 0.14 0.00 90 1023.8
20240529092131 49 15 1.0 2.0 0.00 0.14 0.00 90 1023.8
20240529091629 49 15 1.0 2.0 0.00 0.14 0.00 90 1023.8
20240529091129 49 16 0.0 2.0 0.00 0.14 0.00 89 1023.9
20240529090630 49 16 1.0 2.0 0.00 0.14 0.00 89 1023.9
20240529090130 49 16 0.0 2.0 0.00 0.14 0.00 89 1023.9
20240529085629 49 16 0.0 0.0 0.00 0.14 0.00 89 1023.8
20240529085129 49 16 0.0 1.0 0.00 0.14 0.00 89 1023.8
20240529084629 49 16 0.0 1.0 0.00 0.14 0.00 89 1023.6
20240529084129 49 16 0.0 2.0 0.00 0.14 0.00 89 1023.4
20240529083630 49 16 0.0 2.0 0.00 0.14 0.00 88 1023.4
20240529082630 50 16 0.0 0.0 0.00 0.14 0.00 88 1023.6
20240529082130 50 16 0.0 1.0 0.00 0.14 0.00 88 1023.5
20240529081130 50 16 0.0 2.0 0.00 0.14 0.00 88 1023.4
20240529080629 50 16 0.0 1.0 0.00 0.14 0.00 88 1023.3
20240529080130 51 16 0.0 1.0 0.00 0.14 0.00 88 1023.3
20240529075629 51 16 0.0 1.0 0.00 0.14 0.00 88 1023.3
20240529075130 51 16 0.0 1.0 0.00 0.14 0.00 88 1023.1
20240529074631 51 16 0.0 1.0 0.00 0.14 0.00 88 1023.1
20240529074130 51 16 0.0 2.0 0.00 0.14 0.00 89 1023.0
20240529073629 51 16 0.0 2.0 0.00 0.14 0.00 89 1023.0
20240529072629 51 17 1.0 3.0 0.00 0.14 0.00 89 1023.0
20240529072130 51 19 0.0 2.0 0.00 0.14 0.00 89 1023.1
20240529071630 51 19 0.0 2.0 0.00 0.14 0.00 89 1023.1
20240529071128 51 19 0.0 2.0 0.00 0.14 0.00 89 1023.0
20240529070629 51 19 0.0 1.0 0.00 0.14 0.00 90 1022.9
20240529070129 51 19 0.0 2.0 0.00 0.14 0.00 90 1022.9
20240529065630 51 19 1.0 4.0 0.00 0.14 0.00 89 1022.9
20240529065129 50 19 1.0 4.0 0.00 0.14 0.00 90 1023.0
20240529064630 50 21 0.0 3.0 0.00 0.14 0.00 90 1023.0
20240529064129 50 21 0.0 3.0 0.00 0.14 0.00 90 1023.0
20240529063130 50 22 0.0 2.0 0.00 0.14 0.00 89 1022.9
20240529062629 50 22 0.0 1.0 0.00 0.14 0.00 89 1022.9
20240529062130 50 22 0.0 0.0 0.00 0.14 0.00 89 1023.0
20240529061630 50 22 0.0 0.0 0.00 0.14 0.00 89 1022.9
20240529061129 50 22 0.0 0.0 0.00 0.14 0.00 89 1023.0
20240529060631 50 22 0.0 0.0 0.00 0.14 0.00 89 1023.1
20240529060129 50 22 0.0 0.0 0.00 0.14 0.00 89 1023.1
20240529055128 50 22 0.0 0.0 0.00 0.14 0.00 89 1022.9
20240529054128 51 22 0.0 0.0 0.00 0.14 0.00 89 1022.9
20240529053129 51 22 0.0 0.0 0.00 0.14 0.00 88 1023.0
20240529052630 51 22 0.0 1.0 0.00 0.14 0.00 88 1022.9
20240529051130 51 22 0.0 1.0 0.00 0.14 0.00 88 1022.9
20240529050630 51 22 0.0 1.0 0.00 0.14 0.00 88 1022.8
20240529050129 51 22 0.0 0.0 0.00 0.14 0.00 88 1022.8
20240529045629 52 22 0.0 0.0 0.00 0.14 0.00 88 1022.8
20240529045130 52 22 0.0 0.0 0.00 0.14 0.00 88 1022.8
20240529044628 52 22 0.0 0.0 0.00 0.14 0.00 87 1022.7
20240529043630 52 22 0.0 0.0 0.00 0.14 0.00 88 1022.7
20240529043131 52 22 0.0 0.0 0.00 0.14 0.00 87 1022.6
20240529042629 52 22 0.0 0.0 0.00 0.14 0.00 87 1022.6
20240529040628 53 22 0.0 0.0 0.00 0.14 0.00 86 1022.5
20240529040130 53 22 0.0 0.0 0.00 0.12 0.00 86 1022.5
20240529035629 53 22 0.0 1.0 0.00 0.12 0.00 86 1022.4
20240529035129 53 22 0.0 1.0 0.00 0.12 0.00 86 1022.4
20240529035024 53 22 0.0 0.0 0.00 0.12 0.00 86 1022.5
20240529033027 54 22 0.0 0.0 0.00 0.12 0.00 84 1022.4
20240529031237 55 22 0.0 0.0 0.00 0.12 0.00 83 1022.2
20240529024403 56 22 0.0 0.0 0.00 0.12 0.00 78 1022.0
20240529023140 57 22 0.0 0.0 0.00 0.12 0.00 77 1021.8
20240529021800 58 22 0.0 0.0 0.00 0.12 0.00 74 1021.7
20240529015800 60 22 0.0 0.0 0.00 0.12 0.00 70 1021.5
20240529014148 60 22 0.0 0.0 0.00 0.12 0.00 70 1021.5
20240529013034 61 22 0.0 1.0 0.00 0.12 0.00 69 1021.5
20240529010025 61 23 1.0 5.0 0.00 0.12 0.00 67 1021.2
20240529004336 61 26 1.0 4.0 0.00 0.12 0.00 68 1021.2
20240529003110 61 32 1.0 3.0 0.00 0.12 0.00 68 1021.0
20240529001521 61 34 0.0 4.0 0.00 0.12 0.00 69 1020.9
20240529000328 61 355 2.0 6.0 0.00 0.12 0.00 69 1021.1
20240528234831 61 11 2.0 6.0 0.00 0.12 0.00 70 1021.1
20240528234314 61 31 3.0 6.0 0.00 0.12 0.00 72 1020.9
20240528232845 61 69 3.0 9.0 0.00 0.12 0.00 72 1020.7
20240528232425 60 69 2.0 5.0 0.03 0.12 0.00 77 1020.7
20240528230114 58 74 0.0 2.0 0.04 0.12 0.03 85 1020.9
20240528224443 58 74 0.0 2.0 0.04 0.12 0.03 84 1020.9
20240528223601 58 74 1.0 2.0 0.04 0.12 0.03 83 1020.7
20240528223103 58 74 1.0 2.0 0.04 0.12 0.03 82 1020.9
20240528222602 58 74 1.0 4.0 0.04 0.13 0.03 80 1020.9
20240528222102 59 74 2.0 10.0 0.03 0.12 0.02 78 1021.1
20240528221601 60 88 5.0 14.0 0.03 0.11 0.01 75 1021.1
20240528221102 61 38 6.0 20.0 0.01 0.10 0.00 69 1020.9
20240528220602 63 5 5.0 20.0 0.00 0.11 0.00 65 1020.9
20240528215601 65 25 3.0 7.0 0.00 0.13 0.00 55 1020.2
20240528215102 66 34 3.0 8.0 0.00 0.13 0.00 55 1020.2
20240528214601 66 42 3.0 11.0 0.00 0.14 0.00 56 1020.2
20240528214101 67 355 3.0 11.0 0.00 0.15 0.00 54 1020.2
20240528213602 67 44 2.0 9.0 0.00 0.16 0.00 55 1020.1
20240528213101 67 42 2.0 6.0 0.00 0.17 0.00 54 1020.1
20240528212601 66 11 1.0 5.0 0.00 0.17 0.00 56 1020.2
20240528211601 65 5 3.0 9.0 0.00 0.20 0.00 59 1019.9
20240528211101 65 13 3.0 10.0 0.00 0.21 0.00 58 1019.9
20240528210600 65 24 3.0 10.0 0.00 0.23 0.00 61 1020.0
20240528205600 64 355 2.0 8.0 0.00 0.30 0.00 62 1020.1
20240528205101 63 49 2.0 8.0 0.00 0.41 0.00 63 1020.0
20240528204601 63 37 3.0 7.0 0.00 0.46 0.00 68 1020.0
20240528204103 63 77 3.0 10.0 0.03 0.48 0.00 67 1020.0
20240528203601 62 344 2.0 10.0 0.05 0.48 0.00 69 1020.1
20240528202601 62 33 2.0 9.0 0.05 0.48 0.00 77 1020.1
20240528202101 61 5 2.0 6.0 0.05 0.48 0.00 77 1020.1
20240528201102 61 30 2.0 5.0 0.05 0.48 0.00 82 1020.2
20240528200101 60 355 1.0 3.0 0.05 0.48 0.00 81 1020.2
20240528195601 60 0 1.0 4.0 0.05 0.48 0.04 77 1020.2
20240528195102 60 305 3.0 12.0 0.05 0.48 0.04 75 1020.4
20240528194601 62 321 3.0 12.0 0.05 0.48 0.04 70 1020.3
20240528194102 64 332 2.0 11.0 0.02 0.46 0.01 69 1020.1
20240528193600 64 286 2.0 11.0 0.00 0.44 0.00 67 1019.8
20240528193102 64 355 2.0 8.0 0.00 0.44 0.00 67 1019.9
20240528192602 64 344 1.0 5.0 0.00 0.44 0.00 66 1019.9
20240528192101 64 9 2.0 7.0 0.00 0.44 0.00 67 1019.9
20240528191601 64 18 2.0 9.0 0.00 0.44 0.00 67 1019.8
20240528191101 64 14 2.0 9.0 0.00 0.44 0.00 68 1019.7
20240528190600 64 245 2.0 7.0 0.00 0.44 0.00 68 1019.7
20240528190102 64 0 2.0 7.0 0.00 0.44 0.00 67 1019.9
20240528185601 63 43 2.0 7.0 0.00 0.44 0.00 70 1019.9
20240528185101 63 217 2.0 8.0 0.00 0.44 0.00 68 1019.8
20240528184602 63 235 2.0 8.0 0.00 0.44 0.00 68 1019.7
20240528184102 62 333 3.0 7.0 0.00 0.44 0.00 70 1019.8
20240528183600 62 240 2.0 7.0 0.00 0.44 0.00 70 1019.8
20240528183101 62 233 2.0 8.0 0.00 0.44 0.00 69 1019.9
20240528182601 62 254 2.0 8.0 0.00 0.44 0.00 68 1019.9
20240528182102 62 248 2.0 12.0 0.00 0.44 0.00 69 1020.1
20240528181600 62 232 3.0 12.0 0.00 0.44 0.00 68 1020.1
20240528181101 62 234 2.0 12.0 0.00 0.44 0.00 69 1020.1
20240528180602 62 254 2.0 9.0 0.00 0.45 0.00 68 1020.0
20240528180102 62 298 2.0 9.0 0.00 0.45 0.00 66 1020.0
20240528175600 62 290 3.0 9.0 0.00 0.45 0.00 65 1019.9
20240528174600 63 42 2.0 9.0 0.00 0.45 0.00 66 1020.0
20240528174101 63 149 1.0 8.0 0.00 0.45 0.00 68 1020.1
20240528173101 62 336 2.0 6.0 0.00 0.45 0.00 70 1020.0
20240528172102 61 347 2.0 7.0 0.00 0.45 0.00 74 1020.0
20240528171559 60 10 2.0 8.0 0.00 0.45 0.00 71 1020.0
20240528171053 60 24 2.0 7.0 0.00 0.45 0.00 72 1020.1
20240528170547 60 13 3.0 9.0 0.00 0.45 0.00 71 1020.1
20240528170041 60 29 4.0 11.0 0.00 0.45 0.00 72 1020.0
20240528165534 60 355 5.0 11.0 0.00 0.45 0.00 76 1020.1
20240528165030 60 336 4.0 10.0 0.00 0.45 0.00 76 1020.1
20240528164529 59 19 3.0 10.0 0.00 0.45 0.00 78 1020.2
20240528164030 58 333 3.0 10.0 0.00 0.45 0.00 78 1020.1
20240528163531 58 331 3.0 10.0 0.00 0.45 0.00 78 1020.2
20240528163030 59 355 2.0 8.0 0.00 0.45 0.00 78 1020.2
20240528162029 59 26 3.0 10.0 0.00 0.45 0.00 79 1020.1
20240528161529 59 326 4.0 11.0 0.00 0.45 0.00 81 1019.9
20240528160531 58 14 3.0 10.0 0.00 0.45 0.00 85 1019.9
20240528155529 58 33 3.0 10.0 0.00 0.45 0.00 89 1019.8
20240528154530 57 62 2.0 7.0 0.00 0.45 0.00 92 1019.6
20240528154030 57 61 1.0 5.0 0.00 0.45 0.00 94 1019.6
20240528153530 56 26 1.0 5.0 0.00 0.45 0.00 95 1019.7
20240528153029 56 30 2.0 5.0 0.00 0.46 0.00 94 1019.7
20240528152529 55 355 2.0 5.0 0.00 0.46 0.00 94 1019.7
20240528152029 55 51 1.0 5.0 0.00 0.46 0.00 95 1019.6
20240528151531 55 78 1.0 5.0 0.00 0.46 0.00 95 1019.4